Theta_e
301 293 292 294 292 291 291 289 288 292 294 289 290 289 291 289 287 285 284 284 284 285 286 288 289 288 288 288 288 290 291 291 292 292 291 292 292 295 298 300 301 302 306 305
297 293 294 295 294 293 291 289 288 290 294 290 289 289 288 288 287 286 285 283 283 284 285 286 287 286 287 287 288 290 291 291 292 292 292 292 292 294 295 299 300 300 300 302
291 296 295 293 292 291 289 287 286 286 289 290 288 285 284 285 285 286 286 285 285 283 284 285 286 284 286 287 288 290 291 291 291 292 292 291 292 293 292 293 296 299 299 300
291 293 293 292 291 290 286 288 288 287 283 278 285 276 282 282 282 284 285 282 282 282 284 284 284 285 286 287 289 290 290 290 291 292 290 289 288 288 290 292 295 296 299 299
291 289 288 288 289 291 288 288 286 285 283 281 282 278 281 283 280 282 282 282 281 282 283 283 284 286 287 288 288 289 289 289 290 288 287 287 287 288 288 291 292 293 297 299
291 293 290 289 292 290 290 287 286 285 282 274 280 279 280 280 283 281 282 281 282 282 282 284 286 286 286 287 287 287 287 286 287 285 282 281 282 283 285 288 289 291 294 297
290 289 290 291 287 289 288 282 275 275 274 274 280 276 280 281 282 281 280 280 280 281 282 283 284 284 285 285 286 285 284 283 282 280 279 279 279 280 281 283 287 291 293 294
284 283 288 290 287 283 283 281 275 269 271 273 277 273 279 282 283 283 282 281 281 281 282 283 284 284 284 285 284 283 282 280 280 279 278 278 278 278 279 282 283 284 291 295
285 284 286 285 286 285 283 278 282 275 268 267 273 279 281 282 281 281 280 280 279 280 282 282 283 283 284 284 282 281 280 279 278 277 277 276 277 277 278 279 281 282 285 293
286 280 285 282 283 282 280 283 275 275 264 264 273 275 276 277 278 279 278 278 278 280 282 282 282 283 283 283 282 281 279 277 277 276 275 275 275 276 276 278 278 280 284 286
284 284 280 282 279 279 277 276 277 277 276 268 265 271 279 278 279 277 278 279 279 280 280 281 282 282 282 281 280 279 278 276 275 275 274 273 273 274 275 276 277 279 282 283
284 283 277 280 280 280 279 278 278 270 271 272 271 272 283 281 279 279 279 279 279 281 280 281 281 281 280 279 278 277 276 275 275 274 273 273 272 273 273 274 276 278 278 283
282 279 276 277 276 278 275 276 277 277 275 271 270 271 281 281 280 279 277 277 279 280 280 281 280 279 278 278 276 275 275 274 274 273 272 270 271 271 272 272 273 275 277 278
287 281 280 280 282 278 274 275 276 275 272 273 273 274 279 281 280 277 277 278 278 279 280 280 278 278 277 276 274 273 273 273 273 272 271 269 269 269 269 271 272 272 275 276
283 277 279 280 279 278 277 276 275 274 275 272 275 275 278 279 276 275 276 279 279 278 279 278 276 276 275 274 273 272 272 272 271 270 269 269 269 269 269 269 270 271 274 276
282 276 279 276 277 276 274 275 276 276 276 275 276 275 281 281 277 275 278 278 277 277 277 276 276 275 273 272 271 271 270 270 270 268 268 268 268 268 268 268 269 270 274 275
280 277 274 273 275 274 270 274 275 276 277 276 272 276 280 277 277 276 277 277 276 276 275 275 273 273 272 270 271 268 268 268 267 267 266 267 267 266 267 268 268 269 269 272
279 277 276 272 273 266 277 276 275 275 277 279 279 280 278 277 277 278 278 274 275 275 274 273 272 271 270 270 269 268 267 267 267 266 265 266 265 265 266 267 267 268 269 271
282 278 272 270 269 274 277 277 273 272 272 278 278 279 278 278 277 276 277 275 274 274 273 272 271 270 269 268 267 266 265 266 266 265 265 264 265 263 264 264 265 267 267 269
281 280 275 271 267 265 272 274 277 276 268 278 278 276 276 276 267 271 275 275 274 273 272 270 270 269 268 266 266 264 264 264 264 264 264 264 263 262 262 264 264 266 266 268
274 274 271 271 269 272 278 276 278 267 273 277 278 277 277 274 275 275 275 273 273 271 270 269 268 266 265 265 264 263 263 262 264 263 263 262 262 262 264 266 267 266 266 269
272 270 270 271 268 267 279 276 272 277 279 279 278 277 277 277 276 274 273 271 270 268 267 267 265 264 264 264 263 261 261 263 262 261 260 260 261 266 267 268 269 271 268 269
272 276 273 274 273 279 279 278 280 280 279 279 278 277 277 275 274 273 270 269 268 265 266 265 262 262 263 263 261 259 260 261 260 257 258 260 264 265 267 267 269 273 272 272
277 281 276 276 278 279 280 281 281 281 280 279 278 276 274 273 271 269 267 267 265 265 264 263 261 260 260 260 260 258 259 259 256 256 258 261 262 263 265 267 268 270 274 279
278 279 277 276 279 280 280 281 281 280 279 276 274 274 273 271 269 268 265 263 264 263 262 261 260 259 258 259 258 257 258 256 255 257 260 260 262 262 263 265 266 268 271 275
280 277 276 275 281 280 280 281 281 279 277 275 272 270 270 270 268 266 263 263 262 261 261 260 259 258 258 257 256 256 256 255 255 257 259 260 260 262 262 263 263 268 271 274
Wind_Speed
1 1 7 5 5 4 5 7 10 10 4 0 7 8 9 13 9 8 7 6 5 6 7 7 6 7 9 9 9 12 13 14 13 11 10 11 11 12 10 9 13 14 13 16
5 8 4 3 3 4 6 9 11 4 4 5 10 16 4 14 11 9 8 4 4 6 7 6 8 9 10 13 13 17 17 18 15 13 10 13 13 12 12 10 11 10 11 14
4 7 2 2 5 7 7 8 4 4 7 10 17 14 9 9 6 7 7 4 6 7 7 6 6 8 15 15 16 17 19 21 19 20 11 15 15 12 10 12 10 10 8 9
8 3 2 5 7 4 5 4 3 8 6 5 8 9 4 13 11 9 7 6 6 6 5 6 6 15 16 15 15 18 20 21 20 15 21 23 15 20 14 13 12 10 7 9
9 2 3 4 4 2 2 2 6 10 12 11 10 7 5 20 14 12 8 6 6 5 5 7 10 13 16 14 16 17 21 21 19 20 22 20 22 15 17 17 15 15 9 7
14 6 3 2 2 2 7 6 9 13 9 5 7 5 5 11 15 10 7 6 5 5 5 9 11 14 15 15 17 17 19 19 20 19 24 24 23 21 18 19 16 15 11 5
0 10 4 1 4 5 3 4 5 6 2 8 6 5 9 7 10 10 7 5 4 5 10 10 13 14 16 20 18 18 22 23 21 21 21 20 23 25 22 19 16 19 10 4
4 4 8 5 2 1 3 0 6 7 4 6 8 9 5 13 11 9 8 5 6 9 7 10 12 15 16 18 20 20 22 24 23 22 22 19 20 14 16 17 15 13 16 7
5 4 4 4 3 2 4 4 1 2 2 3 6 7 5 11 9 7 6 7 7 6 8 10 14 15 13 17 18 19 20 23 22 21 20 19 18 20 17 21 18 14 17 15
4 8 2 3 1 2 2 3 4 1 3 8 6 8 5 9 5 6 5 4 4 6 10 11 13 12 15 15 16 18 18 20 21 22 17 18 19 19 20 18 20 20 17 19
2 4 2 4 7 8 4 4 4 1 5 6 4 6 7 8 7 4 2 3 7 8 8 11 14 12 16 13 16 18 18 20 20 18 18 20 18 20 18 17 19 17 18 19
6 4 5 8 3 3 0 6 9 6 6 4 6 17 5 2 9 7 4 4 5 7 9 14 10 16 17 17 18 19 21 20 20 19 20 18 22 18 21 19 19 16 18 18
8 4 3 6 2 0 5 6 5 5 2 17 5 10 5 9 10 7 4 4 5 9 13 15 13 16 16 17 19 20 19 21 20 21 20 20 20 19 20 20 23 19 19 16
5 5 11 18 7 6 6 8 10 13 13 20 25 30 15 13 13 5 6 6 7 10 14 12 16 17 17 17 18 21 22 19 21 22 21 21 21 20 19 18 21 20 19 16
5 9 12 21 16 9 13 9 14 19 24 20 33 23 21 9 4 3 2 5 8 12 12 12 16 17 18 19 20 21 20 21 21 23 23 22 21 21 19 20 19 20 20 14
4 5 7 16 7 10 18 17 17 23 26 25 28 34 17 12 2 4 4 6 10 11 10 14 17 19 19 19 22 23 22 22 22 23 23 23 21 21 21 19 18 21 20 15
8 6 4 7 5 8 17 23 28 28 20 23 24 30 11 6 2 2 4 6 5 8 11 14 16 17 18 20 22 23 24 24 23 22 22 21 22 20 20 20 19 19 19 19
9 7 5 1 4 9 4 3 3 11 19 20 24 22 5 1 4 3 4 4 4 8 11 12 14 17 17 18 20 22 21 21 22 22 21 20 22 23 22 21 20 19 16 17
7 8 4 5 8 13 17 6 8 9 7 12 18 14 4 6 4 4 8 3 2 5 8 9 11 15 18 18 20 22 23 22 22 22 23 23 22 23 23 21 21 18 17 16
8 8 7 5 5 10 2 3 8 7 12 16 12 8 7 6 2 4 3 4 5 6 7 9 12 14 16 17 18 20 21 22 22 24 24 23 23 22 22 21 21 17 16 17
8 5 16 12 8 12 7 11 6 6 5 4 6 7 6 5 6 4 4 1 2 5 8 10 11 13 15 18 18 21 21 22 23 23 23 24 22 23 21 20 17 16 15 15
15 13 8 9 8 19 14 9 10 5 7 10 6 6 5 5 1 1 2 3 4 6 10 11 11 13 14 15 16 19 20 23 24 23 23 23 23 18 17 19 17 14 13 14
10 12 11 16 11 1 22 5 12 5 8 6 8 5 7 6 6 3 2 4 7 9 9 9 10 15 13 14 15 19 22 23 25 23 22 23 22 20 18 18 17 14 10 11
11 13 5 5 10 12 12 7 8 8 5 6 5 7 9 6 6 3 1 3 6 6 9 9 12 14 16 15 16 15 20 22 22 22 21 21 21 22 18 14 13 12 12 11
8 16 13 6 9 2 8 12 10 8 8 8 6 6 8 7 5 4 3 1 4 6 7 8 10 12 15 17 17 16 19 21 21 20 19 20 17 19 19 15 14 13 11 15
10 11 12 9 10 11 7 13 10 13 12 11 11 7 4 6 6 5 3 1 2 6 7 8 11 12 14 16 17 17 18 19 19 19 16 17 16 16 16 16 15 20 25 26
Wind_Direction
110 311 282 47 54 326 272 262 271 279 111 159 243 262 259 150 141 138 120 98 68 48 15 11 15 11 356 335 340 327 319 315 309 309 311 305 299 295 297 289 293 307 321 317
312 270 67 22 287 260 276 271 274 298 139 351 270 261 154 164 168 148 128 112 62 25 18 8 11 7 348 335 336 329 322 320 316 302 306 301 293 286 291 285 280 284 298 309
289 277 67 279 294 282 282 284 319 289 312 272 275 271 150 155 132 143 157 159 58 33 8 356 2 351 352 337 332 327 325 319 318 302 309 307 289 283 286 283 278 270 271 301
266 81 37 307 275 283 279 50 311 280 309 241 53 285 85 167 174 180 156 88 48 17 3 336 341 5 345 328 330 327 318 324 313 319 317 302 308 296 290 276 279 278 260 280
249 242 278 272 271 87 250 329 257 260 252 283 255 257 283 157 190 182 141 92 41 12 356 318 12 354 335 326 327 325 322 312 324 319 311 305 296 304 301 289 280 281 269 266
248 119 215 276 105 183 324 287 271 251 257 272 254 226 230 179 197 142 117 68 35 353 322 360 3 337 325 331 326 323 323 321 323 328 319 308 311 318 316 302 285 283 278 249
252 210 109 156 261 155 226 289 325 334 11 227 74 329 240 139 98 120 101 60 25 346 14 1 336 334 325 331 324 332 326 319 322 321 314 315 313 308 302 306 313 286 272 230
261 298 166 154 208 70 202 150 159 257 259 267 25 253 248 123 125 131 89 70 29 17 356 337 330 327 331 326 329 329 326 321 322 320 316 313 307 300 305 301 307 306 308 249
310 245 93 29 45 125 153 201 13 2 57 2 231 260 69 140 149 95 48 40 22 349 334 332 331 328 327 324 327 324 323 319 316 317 313 312 306 305 304 307 302 299 303 302
348 301 52 98 102 144 252 160 78 124 291 266 250 251 236 186 155 76 21 19 341 341 342 334 325 314 329 322 321 317 320 315 313 317 313 310 307 308 302 298 301 301 300 305
33 207 169 127 201 180 168 226 222 346 192 219 296 257 150 156 156 113 5 12 1 336 330 325 313 328 322 321 316 315 316 318 315 314 318 308 312 299 297 300 298 300 306 311
193 239 246 249 71 49 305 223 181 161 245 257 251 261 329 100 137 113 68 7 309 327 326 324 322 329 323 323 322 321 322 322 318 317 313 314 311 307 299 291 292 303 305 298
177 223 317 279 77 87 235 203 241 254 167 233 230 252 129 152 180 84 59 315 335 332 330 318 328 324 323 323 322 319 317 317 319 316 312 312 308 307 305 304 298 298 294 296
150 209 205 253 269 148 220 219 212 219 236 255 235 259 255 272 293 37 6 347 349 330 326 324 325 322 322 322 320 319 316 317 318 315 312 309 307 302 295 294 297 295 287 286
171 229 230 255 273 277 265 251 219 218 234 231 262 246 265 256 205 175 354 345 332 330 323 329 320 319 322 322 320 318 315 316 319 316 311 307 306 301 297 295 287 290 278 271
180 242 246 267 278 273 267 247 247 244 242 248 258 271 257 283 244 23 344 357 325 317 328 323 318 320 321 324 320 320 316 317 320 310 311 307 306 303 298 295 288 289 291 271
185 199 168 246 60 336 280 231 232 244 240 237 245 250 284 244 247 34 6 331 325 330 324 323 321 320 323 324 322 316 317 315 313 309 309 306 305 301 300 295 291 287 288 289
181 174 167 238 109 244 240 185 220 244 251 245 253 257 232 184 105 28 7 102 336 319 327 322 320 319 319 317 314 313 313 310 310 311 310 311 310 302 299 293 287 282 279 278
180 170 174 212 200 299 294 201 170 181 251 226 235 245 198 115 76 315 94 91 302 331 316 320 321 316 314 316 318 314 313 312 312 315 318 313 312 306 301 294 288 282 279 274
177 195 204 165 219 234 150 112 97 95 270 217 210 218 157 98 125 246 74 44 338 321 323 323 319 315 312 316 317 312 311 318 318 324 318 315 311 303 296 289 285 280 273 271
181 199 219 227 237 273 202 152 139 148 253 107 158 136 147 185 199 136 81 67 326 315 322 326 320 313 316 320 323 319 319 318 321 318 318 315 309 300 290 287 276 270 267 266
176 170 194 202 220 252 147 133 190 189 141 139 139 160 177 196 99 349 353 329 319 326 333 326 318 321 325 321 323 318 320 323 321 323 319 315 312 313 309 305 296 273 257 263
202 193 177 198 212 113 171 168 199 165 161 173 145 151 166 165 199 185 269 327 335 336 327 328 326 325 327 329 330 323 324 326 325 323 321 321 320 321 320 318 313 310 252 256
227 206 218 153 217 226 203 199 169 202 145 135 132 146 163 170 155 181 185 327 324 323 328 334 336 329 324 331 331 325 324 327 324 321 326 328 329 327 329 325 326 323 326 295
181 171 191 249 270 278 210 211 213 158 132 128 136 153 169 155 161 167 136 235 298 314 331 339 333 324 323 330 331 333 333 331 327 328 331 335 331 332 329 333 330 330 333 327
182 171 184 211 195 204 203 199 179 158 171 166 151 146 150 160 155 137 173 191 310 327 339 343 335 329 327 331 334 336 338 334 329 331 338 338 331 336 333 332 334 341 347 347